Location: Engelmannsreuth
(49.8125°N, 11.6497°E)
Time: 09:10:38
(UTC+00:00)

CZ-4C R/B - Pass Details

Date: 17 February 2020
Orbit: 642 x 1360 km, 63.4° (Epoch: 27 March)

Event Time Altitude Azimuth Distance (km) Brightness Sun altitude
Exits shadow 05:14:50 13° 293° (WNW) 2,253 3.8 -11.3°
Maximum altitude 05:18:57 28° 346° (NNW) 1,711 3.6 -10.6°
Drops below altitude 10° 05:24:37 10° 43° (NE) 2,893 5.5 -9.7°
Sets 05:27:59 0° 54° (NE) 3,981 6.5 -9.2°
